Tracking 28790 objects as of 19-Apr-2024
HD Live streaming from Space Station
objects crossing your sky now

COSMOS 970 DEB

Track COSMOS 970 DEB now!
10-day predictions


NORAD ID: 18998
Int'l Code: 1977-121BS
Perigee: 893.1 km
Apogee: 1,074.6 km
Inclination: 65.8 °
Period: 104.6 minutes
Semi major axis: 7354 km
RCS: 0.0054 m2 (small)
Launch date: December 21, 1977
Source: Commonwealth of Independent States (former USSR) (CIS)
Launch site: TYURATAM MISSILE AND SPACE COMPLEX (TTMTR)

Note: This is SATELLITE DEBRIS
Your satellite tracking list
Your tracking list is empty




NASA's NSSDC Master Catalog

Two Line Element Set (TLE):
1 18998U 77121BS  24109.36032562  .00001207  00000-0  12451-2 0  9991
2 18998  65.8268 206.3105 0123370 154.3509 270.9881 13.76395593831909
Source of the keplerian elements: AFSPC